Regional Weather Roundup
Issued by NWS

Home | Current Version | Previous Version | Text Only | Print | Product List | Glossary On
Versions: 1 2 3 4 5 6 7 8 9 10 11 12 13 14 15 16 17 18 19 20 21 22 23 24 25 26 27 28 29 30 31 32 33 34 35 36 37 38 39 40 41 42 43 44 45 46 47 48 49 50
000
ASUS42 KFFC 250803
RWRGA
WEATHER ROUNDUP FOR GEORGIA
NATIONAL WEATHER SERVICE PEACHTREE CITY GA
400 AM EDT MON MAY 25 2015

NOTE: "FAIR" INDICATES FEW OR NO CLOUDS BELOW 12,000 FEET WITH NO
SIGNIFICANT WEATHER AND/OR OBSTRUCTIONS TO VISIBILITY.

* = USE WITH CAUTION. THE STATIONS MARKED WITH AN ASTERISK MAY NOT
REPORT WEATHER SUCH AS PRECIPITATION, FOG, OR THUNDER AND ARE NOT
QUALITY CONTROLLED BY NWS.

THE REMARK "TC" DENOTES TEMPERATURE READING IN DEGREES CELSIUS.

GAZ001>058-250900-
NORTH GEORGIA

CITY           SKY/WX    TMP DP  RH WIND       PRES   REMARKS
ATLANTA        MOCLDY    68  60  75 SE7       30.25F
ATHENS         CLEAR     61  58  90 E3        30.28S
CHAMBLEE       CLEAR     67  60  78 SE9       30.26S
PEACHTREE CITY MOCLDY    68  60  75 SE7       30.25F
ROME           CLEAR     68  58  70 S5        30.21S
WEST ATLANTA   CLEAR     68  58  70 SE7       30.25S
GAINESVILLE    CLEAR     63  57  81 E3        30.31R
CARTERSVILLE   CLEAR     68  57  68 VRB3      30.24R


CITY           SKY/WX    TMP DP  RH WIND       PRES   REMARKS
DALTON*        CLEAR     70  59  68 SE8       30.23R
BLAIRSVILLE*     N/A     65  39  38 SE6       30.31R
$$

GAZ059>098-102>109-250900-
CENTRAL GEORGIA

CITY           SKY/WX    TMP DP  RH WIND       PRES   REMARKS
AUGUSTA-BUSH   CLEAR     59  58  96 CALM      30.28R
AUGUSTA-DANIEL CLEAR     68  59  73 E5        30.29S
COLUMBUS       CLEAR     68  59  73 E6        30.21S
MACON          CLOUDY    66  63  90 E3        30.24S


CITY           SKY/WX    TMP DP  RH WIND       PRES   REMARKS
LAGRANGE*      CLEAR     72  66  81 SE5       30.22S
SYLVANIA*      MOCLDY    68  65  91 E5        30.26S
MILLEDGEVILLE* CLEAR     68  64  88 CALM      30.26S
$$

GAZ099>101-110>166-250900-
SOUTH GEORGIA

CITY           SKY/WX    TMP DP  RH WIND       PRES   REMARKS
SAVANNAH       MOCLDY    74  63  68 E9        30.24F
VALDOSTA       NOT AVBL
ALMA           CLOUDY    68  66  93 CALM      30.22S
ALBANY         CLEAR     71  66  84 E6        30.21F
BRUNSWICK        N/A     77  68  73 E10       30.22S


CITY           SKY/WX    TMP DP  RH WIND       PRES   REMARKS
BAINBRIDGE*    PTCLDY    73  68  83 E5        30.18F
MOULTRIE*      CLEAR     70  68  94 CALM      30.20F
VIDALIA*       CLOUDY    70  64  83 E6        30.24F
WAYCROSS*      MOCLDY    69  69 100 CALM      30.21F
DOUGLAS*       CLEAR     70  68  94 E3        30.23S
$$



USA.gov is the U.S. government's official web portal to all federal, state and local government web resources and services.